Regional Weather Roundup
Issued by NWS State College, PA

Home | Current Version | Previous Version | Text Only | Print | Product List | Glossary On
Versions: 1 2 3 4 5 6 7 8 9 10 11 12 13 14 15 16 17 18 19 20 21 22 23 24 25 26 27 28 29 30 31 32 33 34 35 36 37 38 39 40 41 42 43 44 45 46 47 48 49 50
000
ASUS41 KCTP 260710
RWRCTP

REGIONAL WEATHER ROUNDUP
NATIONAL WEATHER SERVICE STATE COLLEGE PA
200 AM EST WED NOV 26 2014

Note: "fair" indicates few or no clouds below 12,000 feet with no
significant weather and/or obstructions to visibility.

* = STATION THAT DOES NOT REPORT PRECIPITATION /E.G. RAIN...SNOW...ETC/
    THUNDER OR FOG.

PAZ002>004-007>009-013>016-020>023-029>032-260800-
WESTERN PENNSYLVANIA

CITY           SKY/WX    TMP DP  RH WIND       PRES   REMARKS
ERIE           CLOUDY    35  24  64 W3        30.18S
MEADVILLE      CLOUDY    31  23  72 NE3       30.15F
FRANKLIN*      CLOUDY    28  23  80 N3        30.15F
NEW CASTLE       N/A     28  25  89 CALM      30.16F
BEAVER COUNTY  NOT AVBL
BUTLER*        MOCLDY    27  23  86 N3        30.16F
PITTSBURGH INT MOCLDY    31  25  78 CALM      30.15F
PITTSBURGH     CLOUDY    33  22  63 CALM      30.13F
INDIANA*       CLEAR     30  27  86 SE3       30.19S
LATROBE        CLOUDY    32  28  86 CALM      30.16F
WASHINGTON CO* CLOUDY    27  23  86 CALM      30.16R
$$

PAZ004>006-010>012-017>019-024>028-033>037-041-042-045-046-049>053-260800-
CENTRAL PENNSYLVANIA

CITY           SKY/WX    TMP DP  RH WIND       PRES   REMARKS
BRADFORD       CLOUDY    31  24  75 N3        30.13R
DUBOIS         CLOUDY    30  23  75 CALM      30.11F
CLEARFIELD     CLOUDY    30  24  78 CALM      30.16R
JOHNSTOWN      CLOUDY    30  23  75 NE3       30.11F
ALTOONA        CLOUDY    32  28  85 CALM      30.15F
STATE COLLEGE  CLOUDY    33  27  77 CALM      30.19R
WILLIAMSPORT   CLOUDY    33  28  81 CALM      30.20R
SELINSGROVE    CLOUDY    37  31  78 N3        30.20F
FT INDIANTOWN  CLOUDY    43  29  56 VRB2      30.18R
CAPITAL CITY   CLOUDY    43  31  62 CALM      30.19R
HARRISBURG     CLOUDY    41  34  76 CALM      30.18R
YORK           CLOUDY    37  33  85 CALM      30.17R
$$

PAZ038>040-043-044-047-048-054-055-060>062-067>071-260800-
EASTERN PENNSYLVANIA

CITY           SKY/WX    TMP DP  RH WIND       PRES   REMARKS
SCRANTON       CLOUDY    40  27  59 CALM      30.18R
MOUNT POCONO   CLOUDY    37  26  64 NW6       30.13R
ALLENTOWN      CLOUDY    38  31  76 CALM      30.18R
QUAKERTOWN*    CLOUDY    37  32  81 CALM      30.19R
READING        CLOUDY    40  31  70 CALM      30.19R
LANCASTER      CLOUDY    40  32  73 W3        30.19R
COATESVILLE    CLOUDY    41  32  70 CALM      30.18R
POTTSTOWN      CLOUDY    39  33  79 N3        30.21R
BLUE BELL      CLOUDY    41  37  87 CALM      30.18R
DOYLESTOWN     CLOUDY    41  35  79 CALM      30.18R
WILLOW GROVE   NOT AVBL
NORTH PHILA    CLOUDY    46  33  60 CALM      30.20R
PHILADELPHIA   CLOUDY    46  37  71 N3        30.19S
$$


USA.gov is the U.S. government's official web portal to all federal, state and local government web resources and services.